Year,Month,Day,Hour,Minute,Value (Times are PST for temperature in C)
2017,09,28,00,00,12.60
2017,09,28,00,01,12.60
2017,09,28,00,02,12.60
2017,09,28,00,03,12.60
2017,09,28,00,04,12.60
2017,09,28,00,05,12.60
2017,09,28,00,06,12.60
2017,09,28,00,07,12.60
2017,09,28,00,08,12.50
2017,09,28,00,09,12.50
2017,09,28,00,10,12.40
2017,09,28,00,11,12.40
2017,09,28,00,12,12.40
2017,09,28,00,13,12.40
2017,09,28,00,14,12.40
2017,09,28,00,15,12.40
2017,09,28,00,16,12.40
2017,09,28,00,17,12.40
2017,09,28,00,18,12.40
2017,09,28,00,19,12.40
2017,09,28,00,20,12.40
2017,09,28,00,21,12.40
2017,09,28,00,22,12.40
2017,09,28,00,23,12.40
2017,09,28,00,24,12.40
2017,09,28,00,25,12.40
2017,09,28,00,26,12.40
2017,09,28,00,27,12.40
2017,09,28,00,28,12.40
2017,09,28,00,29,12.40
2017,09,28,00,30,12.40
2017,09,28,00,31,12.40
2017,09,28,00,32,12.40
2017,09,28,00,33,12.30
2017,09,28,00,34,12.30
2017,09,28,00,35,12.30
2017,09,28,00,36,12.30
2017,09,28,00,37,12.30
2017,09,28,00,38,12.30
2017,09,28,00,39,12.30
2017,09,28,00,40,12.30
2017,09,28,00,41,12.20
2017,09,28,00,42,12.20
2017,09,28,00,43,12.20
2017,09,28,00,44,12.20
2017,09,28,00,45,12.10
2017,09,28,00,46,12.10
2017,09,28,00,47,12.10
2017,09,28,00,48,12.10
2017,09,28,00,49,12.00
2017,09,28,00,50,12.00
2017,09,28,00,51,12.00
2017,09,28,00,52,12.00
2017,09,28,00,53,12.00
2017,09,28,00,54,12.00
2017,09,28,00,55,12.10
2017,09,28,00,56,12.10
2017,09,28,00,57,12.10
2017,09,28,00,58,12.10
2017,09,28,00,59,12.10
2017,09,28,01,00,12.10
2017,09,28,01,01,12.10
2017,09,28,01,02,12.10
2017,09,28,01,03,12.10
2017,09,28,01,04,12.10
2017,09,28,01,05,12.10
2017,09,28,01,06,12.10
2017,09,28,01,07,12.20
2017,09,28,01,08,12.20
2017,09,28,01,09,12.20
2017,09,28,01,10,12.20
2017,09,28,01,11,12.20
2017,09,28,01,12,12.10
2017,09,28,01,13,12.10
2017,09,28,01,14,12.00
2017,09,28,01,15,11.90
2017,09,28,01,16,11.90
2017,09,28,01,17,11.90
2017,09,28,01,18,11.80
2017,09,28,01,19,11.80
2017,09,28,01,20,11.80
2017,09,28,01,21,11.80
2017,09,28,01,22,11.80
2017,09,28,01,23,11.80
2017,09,28,01,24,11.90
2017,09,28,01,25,11.90
2017,09,28,01,26,11.90
2017,09,28,01,27,11.90
2017,09,28,01,28,11.90
2017,09,28,01,29,11.90
2017,09,28,01,30,11.90
2017,09,28,01,31,11.80
2017,09,28,01,32,11.80
2017,09,28,01,33,11.80
2017,09,28,01,34,11.70
2017,09,28,01,35,11.70
2017,09,28,01,36,11.70
2017,09,28,01,37,11.70
2017,09,28,01,38,11.60
2017,09,28,01,39,11.60
2017,09,28,01,40,11.60
2017,09,28,01,41,11.60
2017,09,28,01,42,11.60
2017,09,28,01,43,11.60
2017,09,28,01,44,11.60
2017,09,28,01,45,11.60
2017,09,28,01,46,11.70
2017,09,28,01,47,11.70
2017,09,28,01,48,11.70
2017,09,28,01,49,11.70
2017,09,28,01,50,11.70
2017,09,28,01,51,11.70
2017,09,28,01,52,11.70
2017,09,28,01,53,11.70
2017,09,28,01,54,11.70
2017,09,28,01,55,11.70
2017,09,28,01,56,11.70
2017,09,28,01,57,11.70
2017,09,28,01,58,11.70
2017,09,28,01,59,11.70
2017,09,28,02,00,11.70
2017,09,28,02,01,11.80
2017,09,28,02,02,11.70
2017,09,28,02,03,11.70
2017,09,28,02,04,11.70
2017,09,28,02,05,11.70
2017,09,28,02,06,11.70
2017,09,28,02,07,11.70
2017,09,28,02,08,11.70
2017,09,28,02,09,11.70
2017,09,28,02,10,11.70
2017,09,28,02,11,11.70
2017,09,28,02,12,11.70
2017,09,28,02,13,11.80
2017,09,28,02,14,11.80
2017,09,28,02,15,11.80
2017,09,28,02,16,11.80
2017,09,28,02,17,11.80
2017,09,28,02,18,11.80
2017,09,28,02,19,11.80
2017,09,28,02,20,11.80
2017,09,28,02,21,11.70
2017,09,28,02,22,11.70
2017,09,28,02,23,11.70
2017,09,28,02,24,11.70
2017,09,28,02,25,11.70
2017,09,28,02,26,11.70
2017,09,28,02,27,11.70
2017,09,28,02,28,11.60
2017,09,28,02,29,11.60
2017,09,28,02,30,11.60
2017,09,28,02,31,11.50
2017,09,28,02,32,11.50
2017,09,28,02,33,11.40
2017,09,28,02,34,11.40
2017,09,28,02,35,11.40
2017,09,28,02,36,11.40
2017,09,28,02,37,11.30
2017,09,28,02,38,11.30
2017,09,28,02,39,11.30
2017,09,28,02,40,11.30
2017,09,28,02,41,11.20
2017,09,28,02,42,11.20
2017,09,28,02,43,11.20
2017,09,28,02,44,11.20
2017,09,28,02,45,11.20
2017,09,28,02,46,11.20
2017,09,28,02,47,11.20
2017,09,28,02,48,11.30
2017,09,28,02,49,11.30
2017,09,28,02,50,11.30
2017,09,28,02,51,11.30
2017,09,28,02,52,11.40
2017,09,28,02,53,11.40
2017,09,28,02,54,11.40
2017,09,28,02,55,11.40
2017,09,28,02,56,11.40
2017,09,28,02,57,11.40
2017,09,28,02,58,11.40
2017,09,28,02,59,11.30
2017,09,28,03,00,11.30
2017,09,28,03,01,11.30
2017,09,28,03,02,11.40
2017,09,28,03,03,11.30
2017,09,28,03,04,11.30
2017,09,28,03,05,11.30
2017,09,28,03,06,11.30
2017,09,28,03,07,11.30
2017,09,28,03,08,11.30
2017,09,28,03,09,11.30
2017,09,28,03,10,11.30
2017,09,28,03,11,11.20
2017,09,28,03,12,11.20
2017,09,28,03,13,11.20
2017,09,28,03,14,11.30
2017,09,28,03,15,11.30
2017,09,28,03,16,11.30
2017,09,28,03,17,11.40
2017,09,28,03,18,11.50
2017,09,28,03,19,11.50
2017,09,28,03,20,11.60
2017,09,28,03,21,11.50
2017,09,28,03,22,11.50
2017,09,28,03,23,11.50
2017,09,28,03,24,11.50
2017,09,28,03,25,11.50
2017,09,28,03,26,11.50
2017,09,28,03,27,11.40
2017,09,28,03,28,11.50
2017,09,28,03,29,11.40
2017,09,28,03,30,11.40
2017,09,28,03,31,11.50
2017,09,28,03,32,11.50
2017,09,28,03,33,11.50
2017,09,28,03,34,11.50
2017,09,28,03,35,11.40
2017,09,28,03,36,11.40
2017,09,28,03,37,11.40
2017,09,28,03,38,11.40
2017,09,28,03,39,11.40
2017,09,28,03,40,11.40
2017,09,28,03,41,11.50
2017,09,28,03,42,11.50
2017,09,28,03,43,11.50
2017,09,28,03,44,11.50
2017,09,28,03,45,11.50
2017,09,28,03,46,11.60
2017,09,28,03,47,11.60
2017,09,28,03,48,11.60
2017,09,28,03,49,11.60
2017,09,28,03,50,11.60
2017,09,28,03,51,11.60
2017,09,28,03,52,11.60
2017,09,28,03,53,11.60
2017,09,28,03,54,11.60
2017,09,28,03,55,11.60
2017,09,28,03,56,11.60
2017,09,28,03,57,11.60
2017,09,28,03,58,11.60
2017,09,28,03,59,11.60
2017,09,28,04,00,11.60
2017,09,28,04,01,11.60
2017,09,28,04,02,11.60
2017,09,28,04,03,11.60
2017,09,28,04,04,11.60
2017,09,28,04,05,11.60
2017,09,28,04,06,11.50
2017,09,28,04,07,11.50
2017,09,28,04,08,11.40
2017,09,28,04,09,11.40
2017,09,28,04,10,11.40
2017,09,28,04,11,11.40
2017,09,28,04,12,11.40
2017,09,28,04,13,11.40
2017,09,28,04,14,11.40
2017,09,28,04,15,11.40
2017,09,28,04,16,11.40
2017,09,28,04,17,11.40
2017,09,28,04,18,11.40
2017,09,28,04,19,11.40
2017,09,28,04,20,11.40
2017,09,28,04,21,11.40
2017,09,28,04,22,11.40
2017,09,28,04,23,11.40
2017,09,28,04,24,11.40
2017,09,28,04,25,11.40
2017,09,28,04,26,11.40
2017,09,28,04,27,11.40
2017,09,28,04,28,11.40
2017,09,28,04,29,11.40
2017,09,28,04,30,11.40
2017,09,28,04,31,11.40
2017,09,28,04,32,11.40
2017,09,28,04,33,11.40
2017,09,28,04,34,11.40
2017,09,28,04,35,11.40
2017,09,28,04,36,11.40
2017,09,28,04,37,11.40
2017,09,28,04,38,11.40
2017,09,28,04,39,11.50
2017,09,28,04,40,11.50
2017,09,28,04,41,11.50
2017,09,28,04,42,11.60
2017,09,28,04,43,11.60
2017,09,28,04,44,11.60
2017,09,28,04,45,11.60
2017,09,28,04,46,11.50
2017,09,28,04,47,11.50
2017,09,28,04,48,11.40
2017,09,28,04,49,11.40
2017,09,28,04,50,11.40
2017,09,28,04,51,11.30
2017,09,28,04,52,11.30
2017,09,28,04,53,11.30
2017,09,28,04,54,11.30
2017,09,28,04,55,11.30
2017,09,28,04,56,11.30
2017,09,28,04,57,11.30
2017,09,28,04,58,11.30
2017,09,28,04,59,11.30
2017,09,28,05,00,11.30
2017,09,28,05,01,11.30
2017,09,28,05,02,11.30
2017,09,28,05,03,11.30
2017,09,28,05,04,11.30
2017,09,28,05,05,11.30
2017,09,28,05,06,11.30
2017,09,28,05,07,11.30
2017,09,28,05,08,11.40
2017,09,28,05,09,11.30
2017,09,28,05,10,11.30
2017,09,28,05,11,11.30
2017,09,28,05,12,11.30
2017,09,28,05,13,11.30
2017,09,28,05,14,11.30
2017,09,28,05,15,11.30
2017,09,28,05,16,11.40
2017,09,28,05,17,11.40
2017,09,28,05,18,11.30
2017,09,28,05,19,11.30
2017,09,28,05,20,11.30
2017,09,28,05,21,11.30
2017,09,28,05,22,11.30
2017,09,28,05,23,11.20
2017,09,28,05,24,11.20
2017,09,28,05,25,11.20
2017,09,28,05,26,11.20
2017,09,28,05,27,11.20
2017,09,28,05,28,11.20
2017,09,28,05,29,11.20
2017,09,28,05,30,11.20
2017,09,28,05,31,11.20
2017,09,28,05,32,11.20
2017,09,28,05,33,11.20
2017,09,28,05,34,11.20
2017,09,28,05,35,11.20
2017,09,28,05,36,11.20
2017,09,28,05,37,11.20
2017,09,28,05,38,11.20
2017,09,28,05,39,11.20
2017,09,28,05,40,11.20
2017,09,28,05,41,11.20
2017,09,28,05,42,11.20
2017,09,28,05,43,11.10
2017,09,28,05,44,11.10
2017,09,28,05,45,11.10
2017,09,28,05,46,11.10
2017,09,28,05,47,11.10
2017,09,28,05,48,11.10
2017,09,28,05,49,11.10
2017,09,28,05,50,11.10
2017,09,28,05,51,11.10
2017,09,28,05,52,11.10
2017,09,28,05,53,11.10
2017,09,28,05,54,11.10
2017,09,28,05,55,11.10
2017,09,28,05,56,11.10
2017,09,28,05,57,11.10
2017,09,28,05,58,11.10
2017,09,28,05,59,11.10
2017,09,28,06,00,11.10
2017,09,28,06,01,11.10
2017,09,28,06,02,11.10
2017,09,28,06,03,11.10
2017,09,28,06,04,11.10
2017,09,28,06,05,11.10
2017,09,28,06,06,11.10
2017,09,28,06,07,11.00
2017,09,28,06,08,11.00
2017,09,28,06,09,11.00
2017,09,28,06,10,10.90
2017,09,28,06,11,10.90
2017,09,28,06,12,10.90
2017,09,28,06,13,10.90
2017,09,28,06,14,10.90
2017,09,28,06,15,10.90
2017,09,28,06,16,10.80
2017,09,28,06,17,10.80
2017,09,28,06,18,10.80
2017,09,28,06,19,10.80
2017,09,28,06,20,10.80
2017,09,28,06,21,10.80
2017,09,28,06,22,10.80
2017,09,28,06,23,10.80
2017,09,28,06,24,10.80
2017,09,28,06,25,10.80
2017,09,28,06,26,10.80
2017,09,28,06,27,10.90
2017,09,28,06,28,10.90
2017,09,28,06,29,10.90
2017,09,28,06,30,10.90
2017,09,28,06,31,10.90
2017,09,28,06,32,10.90
2017,09,28,06,33,10.90
2017,09,28,06,34,10.90
2017,09,28,06,35,10.90
2017,09,28,06,36,10.90
2017,09,28,06,37,10.90
2017,09,28,06,38,10.80
2017,09,28,06,39,10.80
2017,09,28,06,40,10.80
2017,09,28,06,41,10.80
2017,09,28,06,42,10.80
2017,09,28,06,43,10.80
2017,09,28,06,44,10.80
2017,09,28,06,45,10.80
2017,09,28,06,46,10.80
2017,09,28,06,47,10.80
2017,09,28,06,48,10.80
2017,09,28,06,49,10.80
2017,09,28,06,50,10.70
2017,09,28,06,51,10.70
2017,09,28,06,52,10.70
2017,09,28,06,53,10.70
2017,09,28,06,54,10.70
2017,09,28,06,55,10.70
2017,09,28,06,56,10.70
2017,09,28,06,57,10.70
2017,09,28,06,58,10.70
2017,09,28,06,59,10.70
2017,09,28,07,00,10.70
2017,09,28,07,01,10.70
2017,09,28,07,02,10.70
2017,09,28,07,03,10.70
2017,09,28,07,04,10.70
2017,09,28,07,05,10.70
2017,09,28,07,06,10.70
2017,09,28,07,07,10.70
2017,09,28,07,08,10.70
2017,09,28,07,09,10.70
2017,09,28,07,10,10.70
2017,09,28,07,11,10.70
2017,09,28,07,12,10.70
2017,09,28,07,13,10.80
2017,09,28,07,14,10.80
2017,09,28,07,15,10.80
2017,09,28,07,16,10.80
2017,09,28,07,17,10.80
2017,09,28,07,18,10.90
2017,09,28,07,19,10.90
2017,09,28,07,20,10.90
2017,09,28,07,21,10.90
2017,09,28,07,22,10.80
2017,09,28,07,23,10.80
2017,09,28,07,24,10.80
2017,09,28,07,25,10.80
2017,09,28,07,26,10.80
2017,09,28,07,27,10.70
2017,09,28,07,28,10.70
2017,09,28,07,29,10.70
2017,09,28,07,30,10.70
2017,09,28,07,31,10.70
2017,09,28,07,32,10.70
2017,09,28,07,33,10.70
2017,09,28,07,34,10.70
2017,09,28,07,35,10.80
2017,09,28,07,36,10.80
2017,09,28,07,37,10.70
2017,09,28,07,38,10.70
2017,09,28,07,39,10.70
2017,09,28,07,40,10.70
2017,09,28,07,41,10.70
2017,09,28,07,42,10.70
2017,09,28,07,43,10.80
2017,09,28,07,44,10.80
2017,09,28,07,45,10.80
2017,09,28,07,46,10.90
2017,09,28,07,47,10.90
2017,09,28,07,48,11.00
2017,09,28,07,49,11.00
2017,09,28,07,50,11.00
2017,09,28,07,51,11.00
2017,09,28,07,52,10.90
2017,09,28,07,53,10.90
2017,09,28,07,54,11.00
2017,09,28,07,55,11.00
2017,09,28,07,56,11.10
2017,09,28,07,57,11.10
2017,09,28,07,58,11.10
2017,09,28,07,59,11.10
2017,09,28,08,00,11.20
2017,09,28,08,01,11.20
2017,09,28,08,02,11.30
2017,09,28,08,03,11.30
2017,09,28,08,04,11.30
2017,09,28,08,05,11.30
2017,09,28,08,06,11.40
2017,09,28,08,07,11.40
2017,09,28,08,08,11.50
2017,09,28,08,09,11.60
2017,09,28,08,10,11.70
2017,09,28,08,11,11.80
2017,09,28,08,12,11.80
2017,09,28,08,13,11.80
2017,09,28,08,14,11.80
2017,09,28,08,15,11.90
2017,09,28,08,16,11.90
2017,09,28,08,17,11.90
2017,09,28,08,18,11.90
2017,09,28,08,19,11.90
2017,09,28,08,20,11.90
2017,09,28,08,21,11.90
2017,09,28,08,22,11.90
2017,09,28,08,23,11.90
2017,09,28,08,24,11.90
2017,09,28,08,25,12.00
2017,09,28,08,26,12.00
2017,09,28,08,27,12.10
2017,09,28,08,28,12.20
2017,09,28,08,29,12.30
2017,09,28,08,30,12.40
2017,09,28,08,31,12.60
2017,09,28,08,32,12.70
2017,09,28,08,33,12.80
2017,09,28,08,34,12.90
2017,09,28,08,35,13.00
2017,09,28,08,36,13.00
2017,09,28,08,37,13.10
2017,09,28,08,38,13.10
2017,09,28,08,39,13.20
2017,09,28,08,40,13.20
2017,09,28,08,41,13.30
2017,09,28,08,42,13.40
2017,09,28,08,43,13.40
2017,09,28,08,44,13.50
2017,09,28,08,45,13.60
2017,09,28,08,46,13.60
2017,09,28,08,47,13.70
2017,09,28,08,48,13.80
2017,09,28,08,49,13.80
2017,09,28,08,50,13.90
2017,09,28,08,51,13.90
2017,09,28,08,52,14.00
2017,09,28,08,53,14.10
2017,09,28,08,54,14.10
2017,09,28,08,55,14.20
2017,09,28,08,56,14.30
2017,09,28,08,57,14.30
2017,09,28,08,58,14.40
2017,09,28,08,59,14.50
2017,09,28,09,00,14.60
2017,09,28,09,01,14.60
2017,09,28,09,02,14.70
2017,09,28,09,03,14.80
2017,09,28,09,04,14.80
2017,09,28,09,05,14.90
2017,09,28,09,06,15.00
2017,09,28,09,07,15.10
2017,09,28,09,08,15.10
2017,09,28,09,09,15.20
2017,09,28,09,10,15.30
2017,09,28,09,11,15.30
2017,09,28,09,12,15.40
2017,09,28,09,13,15.50
2017,09,28,09,14,15.60
2017,09,28,09,15,15.70
2017,09,28,09,16,15.80
2017,09,28,09,17,15.80
2017,09,28,09,18,15.90
2017,09,28,09,19,15.90
2017,09,28,09,20,16.00
2017,09,28,09,21,16.10
2017,09,28,09,22,16.10
2017,09,28,09,23,16.20
2017,09,28,09,24,16.30
2017,09,28,09,25,16.30
2017,09,28,09,26,16.40
2017,09,28,09,27,16.40
2017,09,28,09,28,16.50
2017,09,28,09,29,16.60
2017,09,28,09,30,16.60
2017,09,28,09,31,16.70
2017,09,28,09,32,16.80
2017,09,28,09,33,16.80
2017,09,28,09,34,16.90
2017,09,28,09,35,17.00
2017,09,28,09,36,17.10
2017,09,28,09,37,17.20
2017,09,28,09,38,17.30
2017,09,28,09,39,17.40
2017,09,28,09,40,17.50
2017,09,28,09,41,17.50
2017,09,28,09,42,17.60
2017,09,28,09,43,17.70
2017,09,28,09,44,17.80
2017,09,28,09,45,17.90
2017,09,28,09,46,18.00
2017,09,28,09,47,18.10
2017,09,28,09,48,18.20
2017,09,28,09,49,18.30
2017,09,28,09,50,18.40
2017,09,28,09,51,18.50
2017,09,28,09,52,18.60
2017,09,28,09,53,18.70
2017,09,28,09,54,18.80
2017,09,28,09,55,18.80
2017,09,28,09,56,18.90
2017,09,28,09,57,19.00
2017,09,28,09,58,19.00
2017,09,28,09,59,19.10
2017,09,28,10,00,19.20
2017,09,28,10,01,19.20
2017,09,28,10,02,19.20
2017,09,28,10,03,19.30
2017,09,28,10,04,19.30
2017,09,28,10,05,19.30
2017,09,28,10,06,19.30
2017,09,28,10,07,19.30
2017,09,28,10,08,19.30
2017,09,28,10,09,19.30
2017,09,28,10,10,19.40
2017,09,28,10,11,19.40
2017,09,28,10,12,19.40
2017,09,28,10,13,19.50
2017,09,28,10,14,19.50
2017,09,28,10,15,19.60
2017,09,28,10,16,19.60
2017,09,28,10,17,19.60
2017,09,28,10,18,19.60
2017,09,28,10,19,19.60
2017,09,28,10,20,19.70
2017,09,28,10,21,19.80
2017,09,28,10,22,19.90
2017,09,28,10,23,19.90
2017,09,28,10,24,20.00
2017,09,28,10,25,20.10
2017,09,28,10,26,20.20
2017,09,28,10,27,20.20
2017,09,28,10,28,20.30
2017,09,28,10,29,20.30
2017,09,28,10,30,20.40
2017,09,28,10,31,20.40
2017,09,28,10,32,20.50
2017,09,28,10,33,20.60
2017,09,28,10,34,20.60
2017,09,28,10,35,20.60
2017,09,28,10,36,20.70
2017,09,28,10,37,20.70
2017,09,28,10,38,20.80
2017,09,28,10,39,20.80
2017,09,28,10,40,20.80
2017,09,28,10,41,20.80
2017,09,28,10,42,20.80
2017,09,28,10,43,20.80
2017,09,28,10,44,20.80
2017,09,28,10,45,20.80
2017,09,28,10,46,20.90
2017,09,28,10,47,20.90
2017,09,28,10,48,20.90
2017,09,28,10,49,21.00
2017,09,28,10,50,21.00
2017,09,28,10,51,21.10
2017,09,28,10,52,21.10
2017,09,28,10,53,21.00
2017,09,28,10,54,21.00
2017,09,28,10,55,20.90
2017,09,28,10,56,20.90
2017,09,28,10,57,20.90
2017,09,28,10,58,20.90
2017,09,28,10,59,20.90
2017,09,28,11,00,20.90
2017,09,28,11,01,20.90
2017,09,28,11,02,20.90
2017,09,28,11,03,20.90
2017,09,28,11,04,21.00
2017,09,28,11,05,21.00
2017,09,28,11,06,21.00
2017,09,28,11,07,21.10
2017,09,28,11,08,21.10
2017,09,28,11,09,21.10
2017,09,28,11,10,21.20
2017,09,28,11,11,21.20
2017,09,28,11,12,21.20
2017,09,28,11,13,21.20
2017,09,28,11,14,21.20
2017,09,28,11,15,21.20
2017,09,28,11,16,21.20
2017,09,28,11,17,21.20
2017,09,28,11,18,21.20
2017,09,28,11,19,21.20
2017,09,28,11,20,21.20
2017,09,28,11,21,21.20
2017,09,28,11,22,21.20
2017,09,28,11,23,21.10
2017,09,28,11,24,21.10
2017,09,28,11,25,21.00
2017,09,28,11,26,21.00
2017,09,28,11,27,20.90
2017,09,28,11,28,20.90
2017,09,28,11,29,20.90
2017,09,28,11,30,20.90
2017,09,28,11,31,20.90
2017,09,28,11,32,20.90
2017,09,28,11,33,20.90
2017,09,28,11,34,20.90
2017,09,28,11,35,20.90
2017,09,28,11,36,20.90
2017,09,28,11,37,20.90
2017,09,28,11,38,20.90
2017,09,28,11,39,21.00
2017,09,28,11,40,21.00
2017,09,28,11,41,21.00
2017,09,28,11,42,21.00
2017,09,28,11,43,21.00
2017,09,28,11,44,21.00
2017,09,28,11,45,21.00
2017,09,28,11,46,21.00
2017,09,28,11,47,21.10
2017,09,28,11,48,21.10
2017,09,28,11,49,21.10
2017,09,28,11,50,21.10
2017,09,28,11,51,21.20
2017,09,28,11,52,21.20
2017,09,28,11,53,21.30
2017,09,28,11,54,21.30
2017,09,28,11,55,21.40
2017,09,28,11,56,21.50
2017,09,28,11,57,21.60
2017,09,28,11,58,21.70
2017,09,28,11,59,21.70
2017,09,28,12,00,21.70
2017,09,28,12,01,21.80
2017,09,28,12,02,21.80
2017,09,28,12,03,21.80
2017,09,28,12,04,21.90
2017,09,28,12,05,21.90
2017,09,28,12,06,22.00
2017,09,28,12,07,22.10
2017,09,28,12,08,22.10
2017,09,28,12,09,22.20
2017,09,28,12,10,22.30
2017,09,28,12,11,22.40
2017,09,28,12,12,22.50
2017,09,28,12,13,22.60
2017,09,28,12,14,22.70
2017,09,28,12,15,22.70
2017,09,28,12,16,22.70
2017,09,28,12,17,22.70
2017,09,28,12,18,22.60
2017,09,28,12,19,22.70
2017,09,28,12,20,22.60
2017,09,28,12,21,22.60
2017,09,28,12,22,22.60
2017,09,28,12,23,22.70
2017,09,28,12,24,22.70
2017,09,28,12,25,22.70
2017,09,28,12,26,22.70
2017,09,28,12,27,22.70
2017,09,28,12,28,22.70
2017,09,28,12,29,22.80
2017,09,28,12,30,22.80
2017,09,28,12,31,22.90
2017,09,28,12,32,22.90
2017,09,28,12,33,23.00
2017,09,28,12,34,23.00
2017,09,28,12,35,23.10
2017,09,28,12,36,23.10
2017,09,28,12,37,23.00
2017,09,28,12,38,23.00
2017,09,28,12,39,23.00
2017,09,28,12,40,23.00
2017,09,28,12,41,23.00
2017,09,28,12,42,23.00
2017,09,28,12,43,23.10
2017,09,28,12,44,23.10
2017,09,28,12,45,23.10
2017,09,28,12,46,23.10
2017,09,28,12,47,23.10
2017,09,28,12,48,23.10
2017,09,28,12,49,23.10
2017,09,28,12,50,23.20
2017,09,28,12,51,23.20
2017,09,28,12,52,23.30
2017,09,28,12,53,23.20
2017,09,28,12,54,23.20
2017,09,28,12,55,23.20
2017,09,28,12,56,23.10
2017,09,28,12,57,23.10
2017,09,28,12,58,23.10
2017,09,28,12,59,23.00
2017,09,28,13,00,23.00
2017,09,28,13,01,23.00
2017,09,28,13,02,22.90
2017,09,28,13,03,22.90
2017,09,28,13,04,22.80
2017,09,28,13,05,22.80
2017,09,28,13,06,22.80
2017,09,28,13,07,22.70
2017,09,28,13,08,22.70
2017,09,28,13,09,22.70
2017,09,28,13,10,22.70
2017,09,28,13,11,22.70
2017,09,28,13,12,22.80
2017,09,28,13,13,22.90
2017,09,28,13,14,22.90
2017,09,28,13,15,23.00
2017,09,28,13,16,23.10
2017,09,28,13,17,23.20
2017,09,28,13,18,23.30
2017,09,28,13,19,23.30
2017,09,28,13,20,23.30
2017,09,28,13,21,23.40
2017,09,28,13,22,23.40
2017,09,28,13,23,23.40
2017,09,28,13,24,23.50
2017,09,28,13,25,23.50
2017,09,28,13,26,23.60
2017,09,28,13,27,23.60
2017,09,28,13,28,23.60
2017,09,28,13,29,23.70
2017,09,28,13,30,23.70
2017,09,28,13,31,23.70
2017,09,28,13,32,23.80
2017,09,28,13,33,23.80
2017,09,28,13,34,23.80
2017,09,28,13,35,23.90
2017,09,28,13,36,23.90
2017,09,28,13,37,24.00
2017,09,28,13,38,24.00
2017,09,28,13,39,24.10
2017,09,28,13,40,24.10
2017,09,28,13,41,24.10
2017,09,28,13,42,24.10
2017,09,28,13,43,24.10
2017,09,28,13,44,24.10
2017,09,28,13,45,24.10
2017,09,28,13,46,24.10
2017,09,28,13,47,24.20
2017,09,28,13,48,24.20
2017,09,28,13,49,24.20
2017,09,28,13,50,24.20
2017,09,28,13,51,24.30
2017,09,28,13,52,24.30
2017,09,28,13,53,24.40
2017,09,28,13,54,24.40
2017,09,28,13,55,24.40
2017,09,28,13,56,24.40
2017,09,28,13,57,24.40
2017,09,28,13,58,24.40
2017,09,28,13,59,24.40
2017,09,28,14,00,24.50
2017,09,28,14,01,24.50
2017,09,28,14,02,24.60
2017,09,28,14,03,24.60
2017,09,28,14,04,24.60
2017,09,28,14,05,24.70
2017,09,28,14,06,24.70
2017,09,28,14,07,24.80
2017,09,28,14,08,24.80
2017,09,28,14,09,24.90
2017,09,28,14,10,24.90
2017,09,28,14,11,24.90
2017,09,28,14,12,24.90
2017,09,28,14,13,24.80
2017,09,28,14,14,24.80
2017,09,28,14,15,24.80
2017,09,28,14,16,24.80
2017,09,28,14,17,24.80
2017,09,28,14,18,24.80
2017,09,28,14,19,24.80
2017,09,28,14,20,24.70
2017,09,28,14,21,24.80
2017,09,28,14,22,24.80
2017,09,28,14,23,24.80
2017,09,28,14,24,24.90
2017,09,28,14,25,24.90
2017,09,28,14,26,24.90
2017,09,28,14,27,25.00
2017,09,28,14,28,25.00
2017,09,28,14,29,25.10
2017,09,28,14,30,25.00
2017,09,28,14,31,25.00
2017,09,28,14,32,24.90
2017,09,28,14,33,24.90
2017,09,28,14,34,24.90
2017,09,28,14,35,25.00
2017,09,28,14,36,25.00
2017,09,28,14,37,25.10
2017,09,28,14,38,25.10
2017,09,28,14,39,25.10
2017,09,28,14,40,25.20
2017,09,28,14,41,25.20
2017,09,28,14,42,25.20
2017,09,28,14,43,25.30
2017,09,28,14,44,25.30
2017,09,28,14,45,25.40
2017,09,28,14,46,25.40
2017,09,28,14,47,25.50
2017,09,28,14,48,25.50
2017,09,28,14,49,25.60
2017,09,28,14,50,25.60
2017,09,28,14,51,25.60
2017,09,28,14,52,25.60
2017,09,28,14,53,25.60
2017,09,28,14,54,25.60
2017,09,28,14,55,25.60
2017,09,28,14,56,25.60
2017,09,28,14,57,25.60
2017,09,28,14,58,25.70
2017,09,28,14,59,25.70
2017,09,28,15,00,25.80
2017,09,28,15,01,25.80
2017,09,28,15,02,25.90
2017,09,28,15,03,25.90
2017,09,28,15,04,25.90
2017,09,28,15,05,26.00
2017,09,28,15,06,26.00
2017,09,28,15,07,26.00
2017,09,28,15,08,25.90
2017,09,28,15,09,26.00
2017,09,28,15,10,25.90
2017,09,28,15,11,25.90
2017,09,28,15,12,25.90
2017,09,28,15,13,25.90
2017,09,28,15,14,25.90
2017,09,28,15,15,25.90
2017,09,28,15,16,26.00
2017,09,28,15,17,26.10
2017,09,28,15,18,26.10
2017,09,28,15,19,26.10
2017,09,28,15,20,26.10
2017,09,28,15,21,26.10
2017,09,28,15,22,26.20
2017,09,28,15,23,26.20
2017,09,28,15,24,26.20
2017,09,28,15,25,26.20
2017,09,28,15,26,26.20
2017,09,28,15,27,26.20
2017,09,28,15,28,26.20
2017,09,28,15,29,26.30
2017,09,28,15,30,26.30
2017,09,28,15,31,26.30
2017,09,28,15,32,26.40
2017,09,28,15,33,26.40
2017,09,28,15,34,26.40
2017,09,28,15,35,26.50
2017,09,28,15,36,26.50
2017,09,28,15,37,26.50
2017,09,28,15,38,26.50
2017,09,28,15,39,26.60
2017,09,28,15,40,26.60
2017,09,28,15,41,26.60
2017,09,28,15,42,26.60
2017,09,28,15,43,26.70
2017,09,28,15,44,26.70
2017,09,28,15,45,26.70
2017,09,28,15,46,26.70
2017,09,28,15,47,26.70
2017,09,28,15,48,26.70
2017,09,28,15,49,26.70
2017,09,28,15,50,26.70
2017,09,28,15,51,26.60
2017,09,28,15,52,26.70
2017,09,28,15,53,26.70
2017,09,28,15,54,26.70
2017,09,28,15,55,26.70
2017,09,28,15,56,26.70
2017,09,28,15,57,26.70
2017,09,28,15,58,26.80
2017,09,28,15,59,26.80
2017,09,28,16,00,26.80
2017,09,28,16,01,26.80
2017,09,28,16,02,26.90
2017,09,28,16,03,26.90
2017,09,28,16,04,26.90
2017,09,28,16,05,26.90
2017,09,28,16,06,26.90
2017,09,28,16,07,26.90
2017,09,28,16,08,26.90
2017,09,28,16,09,26.80
2017,09,28,16,10,26.80
2017,09,28,16,11,26.80
2017,09,28,16,12,26.80
2017,09,28,16,13,26.80
2017,09,28,16,14,26.80
2017,09,28,16,15,26.80
2017,09,28,16,16,26.80
2017,09,28,16,17,26.90
2017,09,28,16,18,26.90
2017,09,28,16,19,26.90
2017,09,28,16,20,27.00
2017,09,28,16,21,27.00
2017,09,28,16,22,27.00
2017,09,28,16,23,27.00
2017,09,28,16,24,27.00
2017,09,28,16,25,27.00
2017,09,28,16,26,27.00
2017,09,28,16,27,26.90
2017,09,28,16,28,26.90
2017,09,28,16,29,26.90
2017,09,28,16,30,26.90
2017,09,28,16,31,27.00
2017,09,28,16,32,27.00
2017,09,28,16,33,27.10
2017,09,28,16,34,27.10
2017,09,28,16,35,27.20
2017,09,28,16,36,27.20
2017,09,28,16,37,27.20
2017,09,28,16,38,27.20
2017,09,28,16,39,27.20
2017,09,28,16,40,27.30
2017,09,28,16,41,27.30
2017,09,28,16,42,27.30
2017,09,28,16,43,27.30
2017,09,28,16,44,27.30
2017,09,28,16,45,27.30
2017,09,28,16,46,27.30
2017,09,28,16,47,27.30
2017,09,28,16,48,27.30
2017,09,28,16,49,27.30
2017,09,28,16,50,27.40
2017,09,28,16,51,27.40
2017,09,28,16,52,27.40
2017,09,28,16,53,27.40
2017,09,28,16,54,27.40
2017,09,28,16,55,27.40
2017,09,28,16,56,27.40
2017,09,28,16,57,27.40
2017,09,28,16,58,27.30
2017,09,28,16,59,27.30
2017,09,28,17,00,27.30
2017,09,28,17,01,27.30
2017,09,28,17,02,27.30
2017,09,28,17,03,27.30
2017,09,28,17,04,27.30
2017,09,28,17,05,27.30
2017,09,28,17,06,27.30
2017,09,28,17,07,27.30
2017,09,28,17,08,27.30
2017,09,28,17,09,27.20
2017,09,28,17,10,27.20
2017,09,28,17,11,27.20
2017,09,28,17,12,27.20
2017,09,28,17,13,27.20
2017,09,28,17,14,27.20
2017,09,28,17,15,27.20
2017,09,28,17,16,27.20
2017,09,28,17,17,27.10
2017,09,28,17,18,27.00
2017,09,28,17,19,26.90